TimeCDT,TemperatureF,Dew PointF,Humidity,Sea Level PressureIn,VisibilityMPH,Wind Direction,Wind SpeedMPH,Gust SpeedMPH,PrecipitationIn,Events,Conditions,WindDirDegrees,DateUTC
12:53 AM,32.0,28.0,85,30.11,10.0,West,11.5,-,N/A,,Clear,280,2013-04-16 05:53:00
1:53 AM,33.1,28.0,82,30.10,10.0,West,10.4,-,N/A,,Clear,280,2013-04-16 06:53:00
2:53 AM,32.0,28.0,85,30.12,10.0,West,12.7,-,N/A,,Clear,280,2013-04-16 07:53:00
3:53 AM,32.0,27.0,82,30.12,10.0,WNW,9.2,-,N/A,,Clear,300,2013-04-16 08:53:00
4:53 AM,32.0,27.0,82,30.14,10.0,WNW,10.4,-,N/A,,Clear,300,2013-04-16 09:53:00
5:53 AM,30.0,27.0,88,30.17,10.0,WNW,8.1,-,N/A,,Clear,290,2013-04-16 10:53:00
6:53 AM,28.9,26.1,89,30.19,9.0,WNW,5.8,-,N/A,,Clear,290,2013-04-16 11:53:00
7:53 AM,33.1,28.0,82,30.22,10.0,WNW,8.1,-,N/A,,Clear,290,2013-04-16 12:53:00
8:53 AM,36.0,28.0,73,30.24,10.0,NNW,11.5,-,N/A,,Clear,330,2013-04-16 13:53:00
9:53 AM,39.0,28.0,65,30.25,10.0,NNW,9.2,-,N/A,,Scattered Clouds,330,2013-04-16 14:53:00
10:16 AM,39.2,26.6,61,30.23,10.0,NW,10.4,-,N/A,,Mostly Cloudy,320,2013-04-16 15:16:00
10:41 AM,39.2,26.6,61,30.23,10.0,NW,10.4,-,N/A,,Scattered Clouds,310,2013-04-16 15:41:00
10:53 AM,39.0,27.0,62,30.27,10.0,NNW,8.1,-,N/A,,Partly Cloudy,330,2013-04-16 15:53:00
11:53 AM,42.1,28.0,58,30.28,10.0,North,11.5,17.3,N/A,,Partly Cloudy,360,2013-04-16 16:53:00
12:53 PM,43.0,28.0,56,30.27,10.0,North,10.4,-,N/A,,Mostly Cloudy,350,2013-04-16 17:53:00
1:53 PM,46.0,28.0,50,30.26,10.0,NNE,10.4,-,N/A,,Scattered Clouds,20,2013-04-16 18:53:00
2:53 PM,46.9,28.0,48,30.25,10.0,NNE,8.1,-,N/A,,Scattered Clouds,30,2013-04-16 19:53:00
3:53 PM,46.9,28.0,48,30.25,10.0,NNE,10.4,-,N/A,,Clear,20,2013-04-16 20:53:00
4:53 PM,46.9,28.0,48,30.25,10.0,NE,10.4,-,N/A,,Clear,50,2013-04-16 21:53:00
5:53 PM,46.0,28.0,50,30.24,10.0,NNE,15.0,20.7,N/A,,Clear,20,2013-04-16 22:53:00
6:53 PM,45.0,27.0,49,30.26,10.0,NE,11.5,-,N/A,,Clear,40,2013-04-16 23:53:00
7:53 PM,42.1,30.0,62,30.26,10.0,NNE,9.2,-,N/A,,Mostly Cloudy,20,2013-04-17 00:53:00
8:53 PM,39.9,30.9,70,30.27,10.0,NNE,15.0,-,N/A,,Overcast,30,2013-04-17 01:53:00
9:53 PM,37.9,30.9,76,30.30,10.0,NNE,13.8,-,N/A,,Overcast,30,2013-04-17 02:53:00
10:53 PM,36.0,30.0,79,30.29,10.0,NNE,12.7,-,N/A,,Overcast,30,2013-04-17 03:53:00
11:53 PM,36.0,30.0,79,30.28,10.0,NE,16.1,-,N/A,,Overcast,40,2013-04-17 04:53:00